Simultaneous Nadir Overpasses (SNOs) Predictions

Prediction of SNOs between METOP-B and NOAA-19 Satellite Orbit:

Table of predicted SNOs for the next 14.0 days since TLE Epoch: 8/28/2021
Index Date (METOP-B) Time (METOP-B) Lat,Lon (METOP-B) SZA (METOP-B ) Date (NOAA-19) Time (NOAA-19) Lat,Lon (NOAA-19) SZA (NOAA-19 ) Distance(km) Time Diff (sec)
1 08/28/2021 04:25:30 80.61, 143.48 72.19 08/28/2021 04:24:27 80.61, 143.51 72.17 0.55 63
2 08/28/2021 05:16:11 -80.60, -49.32 107.82 08/28/2021 05:15:29 -80.61, -49.21 107.82 2.05 42
3 08/28/2021 06:06:52 80.60, 118.01 72.20 08/28/2021 06:06:27 80.60, 118.10 72.20 1.80 25
4 08/28/2021 06:57:32 -80.62, -74.46 107.77 08/28/2021 06:57:29 -80.60, -74.62 107.79 3.20 3
5 08/28/2021 07:48:14 80.59, 92.53 72.20 08/28/2021 07:48:27 80.60, 92.70 72.23 3.26 13
6 08/28/2021 08:38:54 -80.61, -99.93 107.76 08/28/2021 08:39:29 -80.60,-100.03 107.76 1.82 35
7 08/28/2021 09:29:35 80.61, 67.39 72.26 08/28/2021 09:30:27 80.60, 67.30 72.26 1.92 52
8 08/28/2021 10:20:16 -80.60,-125.41 107.75 08/28/2021 10:21:29 -80.60,-125.44 107.73 0.45 73
9 09/08/2021 07:20:15 80.63, 100.03 76.35 09/08/2021 07:19:04 80.62, 100.06 76.32 1.19 71
10 09/08/2021 08:10:56 -80.63, -92.65 103.64 09/08/2021 08:10:03 -80.61, -92.53 103.66 2.67 53
11 09/08/2021 09:01:37 80.62, 74.55 76.36 09/08/2021 09:01:04 80.61, 74.65 76.36 1.97 33
12 09/08/2021 09:52:18 -80.62,-118.13 103.63 09/08/2021 09:52:04 -80.62,-118.30 103.65 3.13 14
13 09/08/2021 10:42:59 80.61, 49.07 76.37 09/08/2021 10:43:04 80.61, 49.25 76.39 3.28 5
14 09/08/2021 11:33:40 -80.61,-143.61 103.62 09/08/2021 11:34:04 -80.62,-143.71 103.62 2.24 24
15 09/08/2021 12:24:20 80.62, 23.92 76.42 09/08/2021 12:25:04 80.61, 23.84 76.42 2.20 44



Historial Predications of SNOs between METOP-B and NOAA-19
